CAPE
0 0 0 0 0 0 0 0 0 0 0 0 0 0 0 0 0 0 0 0 444 681 548 404 414 364 264 373 598 775 820 833 886 846 780 730 673 563 399 432 448 440 432 403 408 401 400 131 14 44 140 245 224 300 399 528 641 744 1015 1152 1192 1238 1286 1272 1193 1174 1189 1068 1144 1142 1115 1133 1134 1218 1266 1376 1594 1704 1957 2279 2634 2793 2663 2583 2446 2318
0 0 0 0 0 0 0 0 0 0 0 0 0 0 0 0 0 0 0 0 94 386 324 314 239 178 111 367 532 715 816 829 866 883 836 788 745 645 482 417 480 495 473 460 471 479 447 372 156 220 126 207 184 202 284 484 585 676 960 1125 1194 1201 1214 1300 1264 1254 1215 1060 1111 1132 1076 988 1050 1154 1173 1349 1570 1749 1981 2273 2568 2724 2697 2534 2501 2474
0 0 0 0 0 0 0 0 0 0 0 0 0 0 0 0 0 0 0 0 0 54 0 0 30 42 63 394 572 719 830 854 860 863 857 819 797 728 583 448 484 501 528 521 524 531 464 448 410 404 353 137 156 151 229 465 509 608 870 1058 1176 1170 1152 1212 1266 1235 1149 970 1116 1185 1038 921 972 1061 1120 1277 1541 1738 1890 2227 2478 2610 2732 2530 2483 2423
0 0 0 0 0 0 0 0 0 0 0 0 0 0 0 0 0 0 0 0 0 0 0 0 0 70 414 588 688 756 823 863 854 866 880 855 853 796 699 564 502 524 537 544 566 559 491 512 484 442 387 95 107 124 147 248 359 626 784 927 1071 1157 1170 1188 1246 1228 1050 868 1056 1083 912 906 951 982 1112 1177 1372 1498 1709 2077 2350 2438 2699 2611 2506 2458
0 0 0 0 0 0 0 0 0 0 0 0 0 0 0 0 0 0 0 0 0 0 0 5 68 408 605 770 826 833 832 818 802 842 879 900 897 830 762 715 668 624 587 553 516 580 536 523 506 472 424 55 136 77 94 164 351 604 729 804 922 1020 1105 1159 1208 1186 1103 960 914 867 795 830 956 868 921 1028 1088 1487 1810 1960 2130 2270 2582 2718 2577 2632
0 0 0 0 0 0 0 0 0 0 0 0 0 0 0 0 0 0 0 0 0 0 6 0 2 33 672 786 849 896 866 802 830 832 846 880 881 850 818 791 766 730 676 628 575 556 570 548 485 428 424 388 394 396 48 86 315 559 679 714 797 893 917 912 1072 1185 1149 959 359 738 747 775 880 726 510 867 1040 1425 1777 2002 1988 2107 2447 2682 2624 2680
0 0 0 0 0 0 0 0 0 0 0 0 0 0 0 0 0 0 0 0 0 0 75 4 0 0 509 803 821 926 871 835 854 844 859 819 802 797 825 796 817 802 770 712 640 598 568 556 516 461 420 429 428 390 19 37 263 444 634 668 708 754 671 793 1030 1174 1121 923 859 762 721 745 700 568 339 604 942 1376 1696 1902 1904 1983 2303 2566 2599 2659
0 0 0 0 0 0 0 0 0 0 0 0 0 0 0 0 0 0 0 0 0 0 12 0 0 4 68 649 811 902 941 953 924 911 886 855 833 840 799 812 846 852 828 780 713 646 605 607 583 521 458 418 417 255 6 16 205 406 512 412 366 423 643 823 1082 1156 1091 998 1058 974 805 750 24 0 236 455 920 1353 1630 1810 1844 1895 2122 2412 2540 2572
0 0 0 0 0 0 0 0 0 0 0 0 0 0 0 0 0 0 0 0 0 0 81 88 0 0 0 0 561 869 990 1032 1002 984 986 917 874 847 794 752 746 859 870 832 769 712 674 669 649 568 514 456 426 414 3 11 155 383 490 470 369 389 535 814 993 1080 1090 1069 1065 307 255 783 0 0 3 492 1087 1433 1676 1700 1744 1832 1956 2232 2408 2422
0 0 0 0 0 0 0 0 0 0 0 0 0 0 0 0 0 0 0 0 0 0 0 0 0 0 0 3 537 840 926 1052 1039 1006 994 1017 970 895 838 800 790 773 793 850 827 773 741 715 684 648 597 522 468 464 42 6 108 339 461 465 379 368 408 746 892 990 1037 1044 1025 798 0 0 0 4 2 419 1064 1403 1586 1603 1634 1740 1804 1974 2195 2242
0 0 0 0 0 0 0 0 0 0 0 0 0 0 0 0 0 0 0 0 0 0 0 0 0 0 0 0 517 732 889 942 966 957 974 972 1028 1011 956 907 858 831 810 798 809 829 794 744 704 686 671 604 477 460 448 424 308 308 423 429 374 376 373 570 826 877 898 911 946 9 0 0 0 0 0 216 956 1278 1478 1494 1494 1638 1656 1728 1905 2048
0 0 0 0 0 0 0 0 0 0 0 0 0 0 0 0 0 0 0 0 0 0 0 0 0 0 0 0 437 643 728 846 902 944 978 1000 993 1026 1022 942 894 867 820 776 786 816 823 790 748 718 734 644 494 478 478 488 483 498 512 398 375 351 360 405 721 765 780 749 273 22 0 0 0 0 0 80 794 1173 1352 1382 1324 1490 1636 1655 1750 1837
0 0 0 0 0 0 0 0 0 0 0 0 0 0 0 0 0 0 0 0 0 0 0 0 0 0 0 0 0 526 652 701 812 838 922 963 1010 1023 989 986 952 881 850 818 738 746 768 770 769 761 752 663 548 498 544 541 548 561 545 526 356 374 372 405 434 381 387 256 262 76 0 0 0 0 0 0 388 1018 1229 1254 1171 1341 1582 1666 1710 1745
0 0 0 0 0 0 0 0 0 0 0 0 0 0 0 0 0 0 0 0 0 0 0 0 0 0 0 0 0 4 459 525 574 646 743 766 849 956 1003 955 934 932 899 862 780 734 772 755 751 746 710 658 608 594 583 570 580 583 567 530 502 404 404 432 464 401 348 305 232 130 20 0 0 0 0 0 59 826 1062 1127 1098 1220 1466 1620 1660 1679
0 0 0 0 0 0 0 0 0 0 0 0 0 0 0 0 0 0 0 0 0 0 0 0 0 0 0 368 309 2 0 91 394 432 458 529 634 821 934 962 942 925 879 849 777 715 788 770 752 749 720 688 670 650 629 618 618 580 572 549 542 495 439 453 494 434 367 344 221 141 49 7 0 0 0 0 0 198 854 987 1075 1148 1327 1488 1587 1629
0 0 0 0 0 0 0 0 0 0 0 0 0 0 0 0 0 0 0 0 0 0 0 0 0 0 92 197 311 228 240 212 40 152 327 358 454 677 844 943 952 917 914 879 823 766 710 789 774 739 727 718 704 681 654 642 615 585 566 574 590 572 466 492 594 489 414 372 284 150 61 17 20 52 0 0 0 0 0 786 978 1079 1181 1266 1386 1526
0 0 0 0 0 0 0 0 0 0 0 0 0 0 0 0 0 0 0 0 0 0 0 0 0 11 0 0 258 155 141 122 63 17 14 8 297 360 782 908 971 1006 967 943 896 831 775 694 768 759 732 730 726 697 686 654 623 596 584 594 619 602 510 532 625 549 464 395 336 204 72 20 14 23 0 0 0 0 0 0 437 925 1012 1094 1140 1273
0 0 0 0 0 0 0 0 0 0 0 0 0 0 0 0 0 0 0 0 0 0 0 0 92 94 123 102 148 189 108 71 26 6 0 1 0 19 533 912 1043 1075 1089 1042 989 928 860 775 694 740 736 750 723 714 699 680 633 610 604 617 626 608 552 537 644 627 498 420 366 270 98 12 2 11 15 0 0 0 0 0 0 68 472 914 1036 1124
0 0 0 0 0 0 0 0 0 0 0 0 0 0 0 0 0 0 0 0 0 0 0 0 0 12 40 129 153 174 170 36 4 0 0 0 1 0 30 675 1042 1140 1165 1161 1128 1072 1000 901 804 730 723 740 739 717 699 677 652 622 614 622 624 597 499 490 646 660 536 423 396 332 167 17 0 0 16 3 0 0 0 0 0 0 104 376 846 997
0 0 0 0 0 0 0 0 0 0 0 0 0 0 0 0 0 0 0 0 0 0 0 0 0 1 0 0 134 160 192 114 0 0 0 0 0 0 0 128 932 1158 1219 1224 1210 1166 1104 996 880 795 767 749 712 728 708 676 644 628 618 622 618 574 405 432 608 721 580 413 383 348 222 30 0 0 6 9 0 0 0 0 0 0 0 96 470 840
0 0 0 0 0 0 0 0 0 0 0 0 0 0 0 0 0 0 0 0 0 0 0 0 0 0 0 49 63 124 180 146 43 0 0 0 0 0 0 4 463 1072 1214 1247 1240 1218 1176 1079 943 852 796 756 716 704 716 700 675 647 634 622 595 569 530 505 500 632 618 434 336 342 244 87 0 0 0 16 0 0 0 0 0 0 0 11 219 440
0 0 0 0 0 0 0 0 0 0 0 0 0 0 0 0 0 0 0 0 0 0 0 0 0 0 0 0 112 146 203 160 114 0 0 0 0 0 0 0 365 830 1119 1214 1247 1224 1202 1124 1008 886 804 757 725 680 646 678 666 664 631 608 574 551 526 541 530 510 584 493 346 276 238 155 2 0 0 4 1 0 0 0 0 0 0 0 68 321
0 0 0 0 0 0 0 0 0 0 0 0 0 0 0 0 0 0 0 0 0 0 0 0 0 0 0 0 0 120 243 210 166 118 0 137 222 286 311 263 524 658 936 1106 1164 1186 1132 1128 1024 911 820 776 738 692 650 624 621 628 620 596 572 556 552 551 551 541 552 566 407 290 237 161 54 0 0 0 4 4 0 0 0 0 0 0 0 161
0 0 0 0 0 0 0 0 0 0 0 0 0 0 0 0 0 0 0 0 0 0 0 0 0 0 0 0 3 65 273 319 244 187 0 127 282 372 440 462 583 688 824 967 1012 1070 1098 1068 1043 918 837 801 754 736 703 668 625 615 601 592 586 582 586 576 577 589 608 625 611 342 250 196 114 6 0 0 0 3 4 0 0 0 0 0 0 0
0 0 0 0 0 0 0 0 0 0 0 0 0 0 0 0 0 0 0 0 0 0 0 0 0 0 0 0 0 66 137 326 312 207 122 130 238 422 472 554 616 678 788 864 933 998 1002 960 928 910 850 782 744 724 688 666 666 647 696 623 614 622 619 616 602 624 644 672 699 676 632 238 174 92 3 0 0 0 0 1 0 0 0 0 0 0
0 0 0 0 0 0 0 0 0 0 0 0 0 0 0 0 0 0 0 0 0 0 0 0 0 0 0 0 9 17 26 196 347 228 153 140 203 294 473 579 658 709 774 840 914 927 963 996 960 899 815 702 670 638 611 663 671 698 789 796 736 696 664 657 650 666 682 703 761 801 768 698 427 164 80 2 0 0 0 0 0 0 0 0 0 0
0 0 0 0 0 0 0 0 0 0 0 0 0 0 0 0 0 0 0 0 0 0 0 0 0 0 0 0 0 0 0 40 334 384 291 192 223 300 388 542 697 752 767 802 883 906 968 1020 1034 1059 946 770 616 458 539 648 708 741 784 848 875 838 773 738 714 722 744 773 830 875 873 848 789 640 128 66 3 0 0 0 0 0 0 1 0 0
0 0 0 0 0 0 0 0 0 0 0 0 0 0 0 0 0 0 0 0 0 0 0 0 0 0 0 0 4 0 0 0 24 293 353 228 160 248 330 394 531 699 768 772 825 895 962 1000 1039 1096 1114 1007 877 667 499 570 742 772 753 822 891 940 917 877 838 812 822 840 901 937 922 924 901 814 666 71 19 0 0 0 0 0 0 0 0 5
0 0 0 0 0 0 0 0 0 0 0 0 0 0 0 0 0 0 0 0 0 0 0 0 0 0 0 0 0 0 0 0 1 150 306 306 183 168 294 423 570 706 748 791 785 831 935 1008 1045 1066 1110 1119 1081 991 852 836 866 839 861 851 863 958 1026 1004 962 939 922 942 980 975 984 972 988 950 886 789 687 10 0 0 0 0 0 0 0 0
0 0 0 0 0 0 0 0 0 0 0 0 0 0 0 0 0 0 0 0 0 0 0 0 0 0 0 0 0 0 0 0 0 0 161 275 254 110 337 493 538 633 723 799 850 836 894 973 1055 1140 1164 1173 1152 1109 1068 1012 941 984 908 978 842 946 1004 1094 1114 1082 1061 1068 1040 1062 1045 1060 1037 1024 989 931 867 825 756 443 0 0 0 0 0 0
0 0 0 0 0 0 0 0 0 0 0 0 0 0 0 0 0 0 0 0 0 0 0 0 0 0 0 5 2 0 0 0 0 0 0 182 259 168 204 344 426 531 636 719 824 856 864 954 1014 1131 1226 1293 1290 1223 1175 1124 1097 1198 1210 1187 1071 1080 1072 1091 1212 1204 1185 1148 1158 1142 1132 1105 1090 1071 1047 994 950 911 886 846 755 552 0 0 0 0
0 0 0 0 0 0 0 0 0 2 0 0 0 0 0 0 0 0 0 0 0 0 0 0 0 0 0 0 0 0 0 0 0 0 0 39 152 196 214 266 320 424 507 634 734 848 883 926 1010 1112 1213 1274 1350 1387 1365 1299 1221 1168 1372 1369 1282 1139 1081 1042 1163 1292 1263 1254 1226 1208 1183 1144 1130 1111 1086 1051 1008 975 969 941 901 861 810 728 550 0
0 0 0 0 0 0 0 0 0 0 0 3 8 10 0 0 0 0 0 0 0 0 0 0 0 0 0 0 0 0 0 0 0 0 0 0 70 165 177 230 245 236 371 526 634 750 827 895 959 1036 1119 1210 1278 1387 1460 1467 1445 1386 1400 1516 1392 1402 1345 1264 1212 1377 1341 1295 1284 1233 1200 1168 1148 1146 1115 1084 1049 1031 1022 1017 1006 1007 1034 1029 988 862
0 0 0 0 0 0 0 0 0 0 0 0 0 4 10 3 0 0 0 0 0 0 0 0 0 0 0 0 0 0 0 0 0 0 0 0 9 103 166 135 196 212 264 396 495 622 718 795 854 946 1022 1080 1153 1230 1373 1470 1553 1560 1506 1401 1575 1376 1464 1421 1378 1307 1306 1442 1283 1296 1306 1233 1212 1201 1171 1138 1108 1099 1096 1098 1126 1163 1207 1333 1412 1328
0 0 0 0 0 0 0 0 0 0 0 0 0 0 0 0 0 0 0 0 0 0 0 0 0 0 0 0 0 0 0 0 0 0 0 0 0 22 90 147 130 202 210 284 389 439 506 544 670 720 902 949 996 1052 1163 1341 1445 1555 1632 1658 1621 1569 1580 1448 1428 1763 1763 1704 1623 1518 1470 1410 1370 1338 1304 1264 1240 1229 1214 1248 1288 1348 1413 1482 1649 1778
0 0 0 0 0 0 0 0 0 0 0 0 0 0 0 0 0 0 0 0 0 0 0 0 0 0 0 0 0 0 0 0 0 0 0 0 0 0 7 40 105 104 113 234 250 312 341 383 558 664 747 751 733 909 1078 1212 1336 1426 1536 1610 1648 1642 1563 1540 1456 1657 1878 2024 1981 1940 1894 1758 1579 1531 1479 1458 1433 1422 1450 1504 1561 1632 1684 1715 1796 1970
0 0 0 0 0 0 0 0 0 0 0 0 0 0 0 0 0 0 0 0 0 0 0 0 0 0 0 0 0 0 0 0 0 0 0 0 0 0 0 0 0 10 97 169 60 146 134 260 356 315 366 450 328 493 818 978 1164 1360 1496 1542 1658 1748 1794 1708 1543 1559 1568 1779 2013 2165 2190 2150 2074 1953 1740 1707 1688 1686 1722 1771 1833 1900 1948 1974 2020 2115
0 0 0 0 0 0 0 0 0 0 0 1 0 0 0 0 0 0 0 0 0 0 0 0 0 0 0 0 0 0 0 0 0 0 0 0 0 0 0 0 0 0 0 1 2 0 0 0 61 69 158 265 276 262 477 824 1012 1230 1318 1534 1661 1728 1816 1886 1830 1756 1660 1616 1597 1698 2008 2328 2372 2327 2247 2101 2048 2045 2065 2081 2118 2164 2184 2203 2200 2251
0 0 0 0 0 0 0 0 0 0 0 0 0 0 0 0 0 0 0 0 0 0 0 0 0 0 0 0 0 0 0 0 0 0 0 0 0 0 0 0 0 0 0 0 2 0 0 0 0 0 0 0 83 25 0 217 766 944 1250 1402 1595 1711 1730 1737 1758 1744 1748 1710 1698 1680 1695 1656 1962 2461 2590 2582 2502 2454 2445 2431 2396 2398 2383 2375 2358 2382
0 0 0 0 0 0 0 0 0 0 0 0 0 0 0 0 0 0 0 1 0 0 0 0 0 0 0 0 0 0 0 0 0 0 0 0 0 0 0 0 0 0 0 0 0 0 1 0 0 0 0 0 0 0 0 0 183 539 1015 1468 1605 1720 1632 1642 1615 1610 1641 1667 1716 1744 1730 1720 1715 1692 1848 2407 2619 2636 2610 2580 2545 2522 2494 2480 2478 2493
0 0 0 0 0 0 3 5 6 0 2 0 0 0 0 0 0 14 0 0 0 0 0 0 0 0 0 0 0 0 0 0 0 0 0 0 0 0 0 0 0 0 0 0 0 0 1 0 0 0 0 0 0 0 0 0 63 424 598 1022 1358 1550 1620 1647 1576 1620 1630 1671 1698 1705 1736 1762 1747 1738 1726 1704 2186 2483 2560 2579 2583 2578 2555 2557 2530 2518
0 0 0 0 1 0 0 6 0 0 0 0 0 0 54 0 0 0 0 0 0 0 0 0 0 0 0 0 0 0 0 0 0 0 0 0 0 0 0 0 0 0 0 0 0 0 0 0 0 0 0 0 0 0 0 0 0 1 492 607 990 1341 1461 1585 1622 1610 1627 1650 1679 1736 1760 1736 1708 1717 1703 1712 1696 2146 2434 2509 2530 2546 2548 2514 2492 2486
0 0 0 0 0 4 2 2 6 1 0 0 0 0 0 0 0 0 0 0 0 0 0 0 0 0 0 0 0 0 0 0 0 0 0 0 0 0 0 0 0 0 0 0 0 0 0 0 0 0 0 0 0 0 0 0 0 0 88 369 570 818 910 1061 1253 1555 1664 1715 1735 1737 1717 1744 1745 1803 2033 1960 1716 1759 2120 2345 2428 2460 2472 2477 2469 2475
0 0 0 0 0 0 0 0 0 0 0 0 0 0 0 1 0 0 0 0 0 0 0 0 0 0 0 0 0 0 0 0 0 0 0 0 0 0 0 0 0 0 0 0 0 0 0 0 0 0 0 0 0 0 0 0 0 0 0 222 308 351 597 767 700 648 850 1467 1703 1689 1709 1735 2010 2226 2562 2676 2346 1910 2016 2192 2298 2345 2381 2423 2469 2505
0 0 0 0 0 0 0 0 0 0 0 0 0 0 0 0 0 0 0 0 0 0 0 0 0 0 0 0 0 0 0 0 0 0 0 0 0 0 0 0 0 0 0 0 0 0 0 0 0 0 0 0 0 0 0 0 0 0 0 72 34 179 248 310 493 557 462 588 890 1446 1679 1671 1872 2287 2593 2858 2960 2642 2104 2219 2285 2327 2381 2440 2508 2539
0 0 0 0 0 0 0 0 0 0 0 0 0 0 0 0 0 0 0 0 0 0 0 0 0 0 0 0 0 0 0 0 0 0 0 0 0 0 0 0 0 0 0 0 0 0 0 0 0 0 0 0 0 0 0 0 0 0 0 0 0 0 0 0 194 242 268 378 612 848 1216 1545 1619 1732 2068 2318 2595 2894 2697 2271 2323 2342 2382 2442 2522 2584
0 0 0 0 0 0 0 0 0 0 0 0 0 0 0 0 0 0 0 0 0 0 0 0 0 0 0 0 0 0 0 0 0 0 0 0 0 0 0 0 0 0 0 0 0 0 0 0 0 0 0 0 0 0 0 0 0 0 0 0 0 0 0 3 2 104 130 300 545 911 1327 1322 1425 1793 2150 2400 2512 2746 2856 2701 2370 2396 2432 2478 2520 2571
0 0 0 0 0 0 0 0 0 0 0 0 0 0 0 0 0 0 0 0 0 0 0 0 0 0 0 0 0 0 0 0 0 0 0 0 0 0 0 0 0 0 0 0 0 0 0 0 0 0 0 0 0 0 0 0 0 0 0 0 0 0 86 4 3 1 5 124 351 593 1026 1263 1506 1984 2276 2476 2570 2698 2812 2793 2615 2395 2454 2496 2522 2516
0 0 0 0 0 0 0 0 0 0 0 0 0 0 0 0 0 0 0 0 0 0 0 0 0 0 0 0 0 0 0 0 0 0 0 0 0 0 0 0 0 0 0 0 0 0 0 0 0 0 0 0 0 0 0 0 0 0 0 0 0 0 0 2 3 2 0 40 241 409 831 1154 1531 2090 2384 2574 2712 2764 2807 2796 2710 2541 2450 2448 2442 2422
0 0 0 0 0 0 0 0 0 0 0 0 0 0 0 0 0 0 0 0 0 0 0 0 0 0 0 0 0 0 0 0 0 0 0 0 0 0 0 0 0 0 0 0 0 0 0 0 0 0 0 0 0 0 0 0 0 0 0 0 0 0 0 2 3 2 1 0 202 428 631 1093 1558 2187 2503 2650 2791 2885 2887 2835 2811 2685 2510 2480 2462 2429
0 0 0 0 0 0 0 0 0 0 0 0 0 0 0 0 0 0 0 0 0 0 0 0 0 0 0 0 0 0 0 0 0 0 0 0 0 0 0 0 0 0 0 0 0 0 0 0 0 0 0 0 0 0 0 0 0 0 0 0 0 0 0 0 3 3 1 1 115 380 635 960 1604 2256 2602 2792 2963 3050 2956 2908 2845 2772 2707 2518 2474 2433
Wind_Speed
nan nan nan nan nan nan nan nan nan nan nan nan nan nan nan nan nan nan nan nan 10 13 13 14 15 12 10 5 4 5 5 5 4 7 7 8 7 7 8 10 13 15 16 12 11 10 10 10 nan nan 8 7 6 5 5 5 4 3 1 3 6 9 10 12 13 12 10 9 9 9 7 7 8 7 7 5 5 4 4 4 5 5 4 4 5 6
nan nan nan nan nan nan nan nan nan nan nan nan nan nan nan nan nan nan nan nan nan 15 21 18 16 13 10 7 3 3 6 10 10 9 7 7 6 5 8 9 12 13 9 11 10 11 11 9 10 9 7 7 7 4 5 6 6 4 2 1 6 10 11 12 13 13 10 8 8 7 6 8 7 7 6 6 6 6 5 5 4 4 4 4 5 6
nan nan nan nan nan nan nan nan nan nan nan nan nan nan nan nan nan nan nan nan nan nan nan nan nan nan nan 11 7 5 9 9 9 10 10 8 6 4 7 9 9 9 11 11 12 11 10 10 10 8 7 7 9 8 7 7 7 5 3 1 6 9 10 12 13 13 9 7 6 6 6 5 7 8 6 6 7 6 6 5 5 5 4 4 5 5
nan nan nan nan nan nan nan nan nan nan nan nan nan nan nan nan nan nan nan nan nan nan nan nan nan nan 24 20 15 11 7 9 8 6 3 3 6 7 10 10 10 12 12 12 11 12 10 10 8 7 7 nan 7 7 6 6 7 5 3 2 5 9 10 12 12 10 9 5 5 6 4 4 4 5 7 7 9 8 8 7 6 7 6 5 4 5
nan nan nan nan nan nan nan nan nan nan nan nan nan nan nan nan nan nan nan nan nan nan nan nan nan 29 22 18 17 15 13 13 10 6 4 2 3 4 3 5 8 12 12 10 8 9 9 10 9 7 7 nan 7 nan nan 5 4 3 5 2 4 8 10 12 10 8 8 6 5 5 7 6 9 10 7 8 10 11 9 9 8 7 6 5 5 5
nan nan nan nan nan nan nan nan nan nan nan nan nan nan nan nan nan nan nan nan nan nan nan nan nan nan 23 15 12 16 13 11 9 6 5 3 5 4 5 7 7 7 8 9 10 10 9 9 8 7 8 8 7 7 nan nan 5 4 4 3 4 8 10 10 9 7 6 6 4 4 5 6 8 8 7 7 9 11 11 10 9 8 6 5 6 6
nan nan nan nan nan nan nan nan nan nan nan nan nan nan nan nan nan nan nan nan nan nan nan nan nan nan 26 20 19 15 12 11 12 9 7 4 5 6 6 7 8 8 7 7 7 7 4 5 8 8 8 7 6 6 nan nan 5 4 4 3 3 7 9 10 10 7 7 7 7 5 5 5 4 5 8 8 9 10 12 12 9 8 7 6 5 6
nan nan nan nan nan nan nan nan nan nan nan nan nan nan nan nan nan nan nan nan nan nan nan nan nan nan nan 19 20 17 14 12 12 11 8 6 6 7 6 7 9 9 10 9 9 9 5 3 6 9 8 6 5 5 nan nan 5 4 3 3 2 6 8 10 10 8 7 7 7 6 6 5 nan nan 5 7 10 11 12 11 10 9 8 7 7 7
nan nan nan nan nan nan nan nan nan nan nan nan nan nan nan nan nan nan nan nan nan nan nan nan nan nan nan nan 22 19 15 13 11 12 9 8 9 9 8 9 10 10 11 11 10 10 6 2 2 4 5 4 4 4 nan nan 5 3 3 2 2 5 7 9 9 8 7 7 6 5 5 5 nan nan nan 7 10 11 12 11 10 9 8 8 9 8
nan nan nan nan nan nan nan nan nan nan nan nan nan nan nan nan nan nan nan nan nan nan nan nan nan nan nan nan 23 17 9 7 10 13 11 9 11 11 9 8 8 8 9 11 12 9 5 2 1 3 4 4 5 4 nan nan 5 3 4 2 1 3 6 8 8 8 7 6 6 5 nan nan nan nan nan 6 6 9 10 9 9 9 9 9 10 10
nan nan nan nan nan nan nan nan nan nan nan nan nan nan nan nan nan nan nan nan nan nan nan nan nan nan nan nan 16 9 4 6 6 6 7 9 12 11 8 9 8 7 8 8 11 9 4 2 2 5 6 7 4 3 6 7 6 3 3 3 1 1 6 7 7 7 6 6 5 nan nan nan nan nan nan 5 7 8 9 8 8 9 9 10 9 9
nan nan nan nan nan nan nan nan nan nan nan nan nan nan nan nan nan nan nan nan nan nan nan nan nan nan nan nan 14 1 2 6 6 8 10 9 6 6 3 9 8 6 6 7 9 9 4 1 2 5 7 8 7 6 6 6 6 3 2 3 2 3 4 6 7 6 6 6 5 nan nan nan nan nan nan nan 4 6 6 7 8 10 11 10 9 9
nan nan nan nan nan nan nan nan nan nan nan nan nan nan nan nan nan nan nan nan nan nan nan nan nan nan nan nan nan 2 1 1 2 3 4 2 2 4 1 7 4 1 3 5 6 8 6 3 4 7 7 6 7 7 7 7 7 4 2 2 2 2 3 5 6 5 4 5 5 nan nan nan nan nan nan nan 4 5 5 7 8 10 10 10 9 8
nan nan nan nan nan nan nan nan nan nan nan nan nan nan nan nan nan nan nan nan nan nan nan nan nan nan nan nan nan nan 7 3 3 3 1 3 3 4 5 7 6 3 3 3 3 7 6 3 5 6 6 6 5 6 5 5 6 5 2 2 2 2 3 5 5 4 5 4 4 5 nan nan nan nan nan nan nan 4 5 6 7 7 8 8 8 7
nan nan nan nan nan nan nan nan nan nan nan nan nan nan nan nan nan nan nan nan nan nan nan nan nan nan nan 26 30 nan nan nan 20 15 9 6 6 6 8 7 5 5 3 1 2 6 7 4 5 6 5 5 5 4 4 4 6 6 3 2 2 4 4 5 5 5 4 5 5 6 nan nan nan nan nan nan nan 6 6 6 6 7 7 7 7 6
nan nan nan nan nan nan nan nan nan nan nan nan nan nan nan nan nan nan nan nan nan nan nan nan nan nan nan 24 37 33 36 38 nan 37 33 23 17 14 11 6 3 4 4 2 3 6 7 4 5 5 5 5 5 4 3 5 7 7 6 4 3 4 6 6 6 6 5 6 6 6 nan nan nan nan nan nan nan nan nan 6 5 5 6 6 7 8
nan nan nan nan nan nan nan nan nan nan nan nan nan nan nan nan nan nan nan nan nan nan nan nan nan nan nan nan 45 41 42 43 nan nan nan nan 30 20 12 7 2 0 3 3 4 6 6 3 4 5 5 5 6 5 5 5 6 9 7 5 4 6 8 7 6 7 7 7 7 5 nan nan nan nan nan nan nan nan nan nan 6 5 5 6 8 8
nan nan nan nan nan nan nan nan nan nan nan nan nan nan nan nan nan nan nan nan nan nan nan nan nan nan 49 41 44 46 49 nan nan nan nan nan nan nan 14 13 9 5 2 3 3 2 3 1 2 2 2 4 6 7 5 4 5 7 8 7 6 5 6 8 9 9 10 9 7 7 nan nan nan nan nan nan nan nan nan nan nan nan 8 7 7 7
nan nan nan nan nan nan nan nan nan nan nan nan nan nan nan nan nan nan nan nan nan nan nan nan nan nan nan 46 47 51 49 nan nan nan nan nan nan nan nan 15 13 11 9 7 5 4 2 2 3 4 4 4 4 5 5 4 5 6 6 6 8 6 5 9 12 12 13 11 12 11 8 nan nan nan nan nan nan nan nan nan nan nan 7 9 10 8
nan nan nan nan nan nan nan nan nan nan nan nan nan nan nan nan nan nan nan nan nan nan nan nan nan nan nan nan 49 50 49 47 nan nan nan nan nan nan nan 22 13 10 10 6 6 4 2 3 4 5 4 5 4 5 6 6 6 7 7 6 5 4 6 9 10 12 11 11 12 12 12 nan nan nan nan nan nan nan nan nan nan nan nan nan 9 8
nan nan nan nan nan nan nan nan nan nan nan nan nan nan nan nan nan nan nan nan nan nan nan nan nan nan nan nan nan 50 48 47 nan nan nan nan nan nan nan nan 19 13 10 8 5 5 3 5 5 3 4 6 8 9 9 7 5 6 6 6 6 7 5 4 8 11 11 12 11 11 10 nan nan nan nan nan nan nan nan nan nan nan nan nan 9 8
nan nan nan nan nan nan nan nan nan nan nan nan nan nan nan nan nan nan nan nan nan nan nan nan nan nan nan nan 44 46 44 44 44 nan nan nan nan nan nan nan 37 16 15 12 9 8 6 7 8 6 6 10 11 11 9 8 7 6 5 4 5 5 4 2 6 10 12 13 12 11 11 12 nan nan nan nan nan nan nan nan nan nan nan nan nan 9
nan nan nan nan nan nan nan nan nan nan nan nan nan nan nan nan nan nan nan nan nan nan nan nan nan nan nan nan nan 41 40 43 43 44 nan 45 46 48 48 48 48 40 28 26 25 20 12 8 10 10 8 9 10 10 9 9 7 5 4 4 4 5 4 3 5 10 14 15 14 12 14 15 nan nan nan nan nan nan nan nan nan nan nan nan nan 9
nan nan nan nan nan nan nan nan nan nan nan nan nan nan nan nan nan nan nan nan nan nan nan nan nan nan nan nan nan nan 39 42 46 46 nan 46 47 49 50 52 52 48 48 48 40 35 28 25 22 18 14 12 12 12 10 9 8 7 6 5 3 4 5 5 6 10 14 16 15 15 16 15 16 nan nan nan nan nan nan nan nan nan nan nan nan nan
nan nan nan nan nan nan nan nan nan nan nan nan nan nan nan nan nan nan nan nan nan nan nan nan nan nan nan nan nan nan 46 49 51 50 48 49 48 47 48 50 50 51 53 53 52 52 51 43 33 25 21 16 13 13 13 11 10 9 7 6 4 4 6 8 7 7 11 14 16 17 15 14 15 nan nan nan nan nan nan nan nan nan nan nan nan nan
nan nan nan nan nan nan nan nan nan nan nan nan nan nan nan nan nan nan nan nan nan nan nan nan nan nan nan nan nan nan nan 50 52 51 50 48 48 47 49 49 50 52 51 53 55 56 53 50 51 51 45 35 27 22 18 15 13 11 10 8 7 8 9 8 9 8 8 12 15 16 15 15 14 13 nan nan nan nan nan nan nan nan nan nan nan nan
nan nan nan nan nan nan nan nan nan nan nan nan nan nan nan nan nan nan nan nan nan nan nan nan nan nan nan nan nan nan nan nan 58 58 55 53 51 49 47 48 49 49 50 52 51 52 55 58 56 55 54 51 46 37 31 27 22 18 16 13 11 11 11 10 10 8 7 8 11 15 15 15 13 14 14 nan nan nan nan nan nan nan nan nan nan nan
nan nan nan nan nan nan nan nan nan nan nan nan nan nan nan nan nan nan nan nan nan nan nan nan nan nan nan nan nan nan nan nan nan 56 56 53 52 51 49 50 52 53 53 53 54 56 56 56 57 57 57 56 52 51 47 37 30 28 25 21 18 17 15 15 12 10 8 8 9 10 12 14 16 16 16 nan nan nan nan nan nan nan nan nan nan nan
nan nan nan nan nan nan nan nan nan nan nan nan nan nan nan nan nan nan nan nan nan nan nan nan nan nan nan nan nan nan nan nan nan 55 53 52 50 53 56 57 55 55 54 55 54 54 55 57 56 57 58 56 56 55 51 49 44 34 27 26 24 23 19 19 16 13 11 9 8 9 11 16 19 20 20 19 20 nan nan nan nan nan nan nan nan nan
nan nan nan nan nan nan nan nan nan nan nan nan nan nan nan nan nan nan nan nan nan nan nan nan nan nan nan nan nan nan nan nan nan nan 50 54 56 57 57 57 56 55 55 54 53 52 52 53 55 57 57 57 57 56 55 52 48 45 37 27 27 24 24 23 20 17 14 11 10 12 13 16 19 21 22 21 19 18 19 19 nan nan nan nan nan nan
nan nan nan nan nan nan nan nan nan nan nan nan nan nan nan nan nan nan nan nan nan nan nan nan nan nan nan nan nan nan nan nan nan nan nan 52 55 60 60 58 57 56 55 53 53 53 51 49 50 54 57 57 56 54 54 51 50 48 47 41 30 27 25 23 20 18 15 12 13 15 15 16 16 20 21 20 20 21 20 19 21 21 nan nan nan nan
nan nan nan nan nan nan nan nan nan nan nan nan nan nan nan nan nan nan nan nan nan nan nan nan nan nan nan nan nan nan nan nan nan nan nan nan 56 60 62 61 59 58 58 56 54 54 54 52 51 51 53 54 55 54 53 54 53 52 50 48 44 30 27 23 20 17 14 13 15 15 14 13 13 14 16 19 19 20 20 22 22 21 21 21 20 nan
nan nan nan nan nan nan nan nan nan nan nan nan nan nan nan nan nan nan nan nan nan nan nan nan nan nan nan nan nan nan nan nan nan nan nan nan nan 60 62 63 61 60 59 58 56 55 54 52 51 51 51 51 54 55 54 53 53 53 52 51 46 44 30 24 21 18 17 17 17 15 14 14 12 10 12 14 17 20 22 23 22 21 21 20 21 25
nan nan nan nan nan nan nan nan nan nan nan nan nan nan nan nan nan nan nan nan nan nan nan nan nan nan nan nan nan nan nan nan nan nan nan nan nan 63 63 63 64 62 61 60 56 55 54 52 51 51 50 50 52 54 54 53 53 51 52 50 49 46 43 35 27 23 20 19 18 15 14 13 11 10 10 12 16 21 22 22 20 20 21 23 25 24
nan nan nan nan nan nan nan nan nan nan nan nan nan nan nan nan nan nan nan nan nan nan nan nan nan nan nan nan nan nan nan nan nan nan nan nan nan nan nan 65 66 66 64 61 59 58 57 55 54 53 53 53 53 55 58 58 57 55 54 53 51 49 47 43 39 33 26 22 19 17 15 13 12 11 11 12 14 18 19 20 20 21 22 24 24 24
nan nan nan nan nan nan nan nan nan nan nan nan nan nan nan nan nan nan nan nan nan nan nan nan nan nan nan nan nan nan nan nan nan nan nan nan nan nan nan nan 67 69 67 63 60 59 57 59 59 56 53 51 52 53 56 58 59 57 55 53 51 51 49 48 42 38 36 29 23 20 17 15 14 14 14 14 14 15 17 19 20 21 23 25 26 26
nan nan nan nan nan nan nan nan nan nan nan nan nan nan nan nan nan nan nan nan nan nan nan nan nan nan nan nan nan nan nan nan nan nan nan nan nan nan nan nan nan nan nan 66 nan 61 58 59 60 59 54 51 51 53 54 58 59 58 57 55 52 51 51 49 47 44 40 37 34 27 22 19 16 16 15 15 15 13 14 17 19 22 27 27 26 26
nan nan nan nan nan nan nan nan nan nan nan nan nan nan nan nan nan nan nan nan nan nan nan nan nan nan nan nan nan nan nan nan nan nan nan nan nan nan nan nan nan nan nan nan nan nan nan nan nan nan 58 53 53 54 54 55 58 59 58 56 53 53 51 50 49 48 46 42 38 35 34 28 22 18 16 15 13 12 14 16 20 23 26 25 26 25
nan nan nan nan nan nan nan nan nan nan nan nan nan nan nan nan nan nan nan nan nan nan nan nan nan nan nan nan nan nan nan nan nan nan nan nan nan nan nan nan nan nan nan nan nan nan nan nan nan nan nan nan nan nan nan 57 57 55 54 55 54 52 50 49 50 50 49 48 47 43 37 30 26 23 20 16 13 14 15 16 18 22 24 23 25 25
nan nan nan nan nan nan nan nan nan nan nan nan nan nan nan nan nan nan nan nan nan nan nan nan nan nan nan nan nan nan nan nan nan nan nan nan nan nan nan nan nan nan nan nan nan nan nan nan nan nan nan nan nan nan nan nan 55 52 51 52 54 54 52 49 49 48 46 46 45 44 41 36 29 25 23 20 19 19 18 20 22 22 21 21 23 24
nan nan nan nan nan nan nan nan nan nan nan nan nan nan nan nan nan nan nan nan nan nan nan nan nan nan nan nan nan nan nan nan nan nan nan nan nan nan nan nan nan nan nan nan nan nan nan nan nan nan nan nan nan nan nan nan nan 54 52 51 50 52 52 50 48 47 46 44 43 42 41 39 36 30 25 23 23 23 22 23 22 22 22 21 23 23
nan nan nan nan nan nan nan nan nan nan nan nan nan nan nan nan nan nan nan nan nan nan nan nan nan nan nan nan nan nan nan nan nan nan nan nan nan nan nan nan nan nan nan nan nan nan nan nan nan nan nan nan nan nan nan nan nan nan 55 54 50 49 50 49 47 45 44 43 41 41 40 39 38 36 32 27 26 25 23 23 23 24 23 24 24 22
nan nan nan nan nan nan nan nan nan nan nan nan nan nan nan nan nan nan nan nan nan nan nan nan nan nan nan nan nan nan nan nan nan nan nan nan nan nan nan nan nan nan nan nan nan nan nan nan nan nan nan nan nan nan nan nan nan nan nan 52 52 51 50 48 46 44 43 41 40 39 39 39 38 37 37 33 29 27 24 25 25 25 25 25 24 23
nan nan nan nan nan nan nan nan nan nan nan nan nan nan nan nan nan nan nan nan nan nan nan nan nan nan nan nan nan nan nan nan nan nan nan nan nan nan nan nan nan nan nan nan nan nan nan nan nan nan nan nan nan nan nan nan nan nan nan 49 51 52 50 47 45 43 42 41 41 40 38 39 39 38 36 34 33 31 28 28 27 26 27 26 26 26
nan nan nan nan nan nan nan nan nan nan nan nan nan nan nan nan nan nan nan nan nan nan nan nan nan nan nan nan nan nan nan nan nan nan nan nan nan nan nan nan nan nan nan nan nan nan nan nan nan nan nan nan nan nan nan nan nan nan nan nan nan 51 50 48 44 42 42 42 43 43 41 41 40 38 38 38 37 34 31 30 30 29 28 28 27 27
nan nan nan nan nan nan nan nan nan nan nan nan nan nan nan nan nan nan nan nan nan nan nan nan nan nan nan nan nan nan nan nan nan nan nan nan nan nan nan nan nan nan nan nan nan nan nan nan nan nan nan nan nan nan nan nan nan nan nan nan nan nan nan nan 46 44 44 45 45 44 43 43 42 39 37 38 39 36 33 32 32 31 30 30 29 27
nan nan nan nan nan nan nan nan nan nan nan nan nan nan nan nan nan nan nan nan nan nan nan nan nan nan nan nan nan nan nan nan nan nan nan nan nan nan nan nan nan nan nan nan nan nan nan nan nan nan nan nan nan nan nan nan nan nan nan nan nan nan nan nan nan 45 45 46 47 46 45 45 44 42 39 38 41 41 38 35 35 34 33 31 29 27
nan nan nan nan nan nan nan nan nan nan nan nan nan nan nan nan nan nan nan nan nan nan nan nan nan nan nan nan nan nan nan nan nan nan nan nan nan nan nan nan nan nan nan nan nan nan nan nan nan nan nan nan nan nan nan nan nan nan nan nan nan nan nan nan nan nan nan 46 45 45 46 46 45 43 40 38 41 43 42 39 37 36 34 32 29 28
nan nan nan nan nan nan nan nan nan nan nan nan nan nan nan nan nan nan nan nan nan nan nan nan nan nan nan nan nan nan nan nan nan nan nan nan nan nan nan nan nan nan nan nan nan nan nan nan nan nan nan nan nan nan nan nan nan nan nan nan nan nan nan nan nan nan nan nan 47 47 47 46 47 46 44 41 40 40 40 39 38 36 33 30 30 29
nan nan nan nan nan nan nan nan nan nan nan nan nan nan nan nan nan nan nan nan nan nan nan nan nan nan nan nan nan nan nan nan nan nan nan nan nan nan nan nan nan nan nan nan nan nan nan nan nan nan nan nan nan nan nan nan nan nan nan nan nan nan nan nan nan nan nan nan 48 49 49 48 49 49 47 43 40 39 39 35 31 33 33 31 26 24
nan nan nan nan nan nan nan nan nan nan nan nan nan nan nan nan nan nan nan nan nan nan nan nan nan nan nan nan nan nan nan nan nan nan nan nan nan nan nan nan nan nan nan nan nan nan nan nan nan nan nan nan nan nan nan nan nan nan nan nan nan nan nan nan nan nan nan nan 48 49 49 50 50 50 47 42 39 39 38 38 37 35 33 33 33 28
Wind_Direction
nan nan nan nan nan nan nan nan nan nan nan nan nan nan nan nan nan nan nan nan 198 175 142 133 128 138 132 122 76 70 71 78 33 15 16 17 18 19 12 5 2 2 6 358 350 343 347 354 nan nan 349 349 347 354 353 337 336 340 40 152 141 154 168 170 169 170 168 161 160 161 147 140 145 140 135 127 122 109 116 110 96 94 97 106 111 112
nan nan nan nan nan nan nan nan nan nan nan nan nan nan nan nan nan nan nan nan nan 180 158 152 153 140 141 147 112 95 68 58 36 18 18 14 14 20 17 8 8 6 356 358 358 348 343 350 358 351 348 340 338 350 347 344 339 334 329 131 147 160 165 166 165 169 169 166 161 163 146 156 157 146 138 131 127 119 125 119 112 114 117 114 114 117
nan nan nan nan nan nan nan nan nan nan nan nan nan nan nan nan nan nan nan nan nan nan nan nan nan nan nan 163 154 86 62 79 64 31 13 354 349 356 5 8 7 357 1 3 4 352 344 345 354 355 349 346 343 340 351 352 338 334 331 181 168 161 166 165 165 170 166 170 175 166 158 148 158 145 134 128 119 123 119 122 136 146 144 138 130 128
nan nan nan nan nan nan nan nan nan nan nan nan nan nan nan nan nan nan nan nan nan nan nan nan nan nan 201 187 164 152 138 144 123 99 58 359 353 1 6 3 2 360 351 359 6 4 349 344 352 355 352 nan 341 335 343 351 346 325 325 236 183 165 164 168 167 166 162 167 178 166 161 144 150 141 145 142 140 131 137 134 152 160 157 145 138 136
nan nan nan nan nan nan nan nan nan nan nan nan nan nan nan nan nan nan nan nan nan nan nan nan nan 200 215 212 185 171 175 171 150 134 115 60 54 34 12 358 2 2 358 2 18 19 358 349 349 351 352 nan 348 nan nan 339 337 299 334 303 204 173 164 170 171 170 172 170 175 166 172 170 178 177 170 162 143 133 134 149 163 150 159 145 140 140
nan nan nan nan nan nan nan nan nan nan nan nan nan nan nan nan nan nan nan nan nan nan nan nan nan nan 203 211 201 201 186 150 153 131 96 57 38 38 33 21 10 15 13 15 23 26 9 349 331 339 352 359 352 336 nan nan 334 317 323 311 223 185 172 168 169 179 178 161 154 163 176 167 172 183 170 138 128 136 139 138 148 169 160 144 143 141
nan nan nan nan nan nan nan nan nan nan nan nan nan nan nan nan nan nan nan nan nan nan nan nan nan nan 205 205 215 208 175 159 170 135 121 103 66 59 47 25 16 13 12 18 21 26 12 350 341 343 354 3 350 333 nan nan 327 329 324 327 259 199 178 172 172 182 183 177 166 158 161 170 169 183 154 144 138 136 137 150 160 160 160 146 135 137
nan nan nan nan nan nan nan nan nan nan nan nan nan nan nan nan nan nan nan nan nan nan nan nan nan nan nan 196 214 208 185 178 159 142 126 99 92 76 61 34 26 19 10 5 12 14 19 3 357 351 349 349 351 324 nan nan 312 313 315 324 292 208 189 175 179 183 185 191 189 183 169 167 nan nan 166 155 145 146 150 155 154 166 154 145 142 138
nan nan nan nan nan nan nan nan nan nan nan nan nan nan nan nan nan nan nan nan nan nan nan nan nan nan nan nan 227 223 203 181 133 113 100 86 87 89 69 44 31 23 16 9 9 12 27 41 6 331 333 338 336 331 nan nan 310 285 263 296 254 220 200 183 186 193 191 200 207 201 174 151 nan nan nan 174 158 152 155 152 160 162 155 150 147 141
nan nan nan nan nan nan nan nan nan nan nan nan nan nan nan nan nan nan nan nan nan nan nan nan nan nan nan nan 231 223 208 162 103 77 75 84 91 91 74 49 31 23 18 16 14 15 44 86 301 303 296 319 1 342 nan nan 304 281 245 251 282 226 204 195 194 201 206 209 215 208 nan nan nan nan nan 190 160 151 159 151 155 161 159 153 150 142
nan nan nan nan nan nan nan nan nan nan nan nan nan nan nan nan nan nan nan nan nan nan nan nan nan nan nan nan 240 257 40 38 82 91 99 118 123 118 79 35 29 22 13 8 12 16 48 100 295 299 336 354 353 321 319 323 323 306 277 260 269 230 205 204 206 211 216 215 214 nan nan nan nan nan nan 196 165 161 162 153 155 161 155 156 144 143
nan nan nan nan nan nan nan nan nan nan nan nan nan nan nan nan nan nan nan nan nan nan nan nan nan nan nan nan 205 133 62 38 29 25 38 58 91 127 68 24 25 18 4 355 2 6 6 42 341 325 342 349 2 353 343 328 315 315 280 249 258 206 207 207 213 218 220 217 209 nan nan nan nan nan nan nan 173 159 152 152 156 162 163 154 152 148
nan nan nan nan nan nan nan nan nan nan nan nan nan nan nan nan nan nan nan nan nan nan nan nan nan nan nan nan nan 221 185 208 31 56 60 69 176 199 303 357 343 310 342 347 359 354 347 14 14 356 352 346 359 13 0 334 315 313 274 269 263 211 203 211 222 230 235 223 213 nan nan nan nan nan nan nan 186 167 157 162 165 171 158 159 156 146
nan nan nan nan nan nan nan nan nan nan nan nan nan nan nan nan nan nan nan nan nan nan nan nan nan nan nan nan nan nan 207 227 263 15 78 216 210 236 274 302 295 289 341 346 347 353 355 24 37 9 351 351 358 10 3 332 310 295 256 231 250 233 212 205 213 231 239 237 216 201 nan nan nan nan nan nan nan 164 162 174 167 167 161 156 146 146
nan nan nan nan nan nan nan nan nan nan nan nan nan nan nan nan nan nan nan nan nan nan nan nan nan nan nan 215 204 nan nan nan 187 177 180 204 221 224 239 256 288 274 272 263 18 14 8 27 39 19 354 346 344 349 353 318 312 307 294 245 222 218 213 208 197 209 239 239 222 201 nan nan nan nan nan nan nan 176 171 174 172 172 174 167 158 149
nan nan nan nan nan nan nan nan nan nan nan nan nan nan nan nan nan nan nan nan nan nan nan nan nan nan nan 228 216 210 210 211 nan 195 190 187 194 215 228 243 286 317 304 312 66 43 25 38 56 33 357 336 323 332 341 334 317 323 314 285 244 227 223 210 192 183 209 235 230 209 nan nan nan nan nan nan nan nan nan 178 179 186 183 177 176 169
nan nan nan nan nan nan nan nan nan nan nan nan nan nan nan nan nan nan nan nan nan nan nan nan nan nan nan nan 217 207 208 208 nan nan nan nan 191 202 188 191 205 349 334 339 45 48 30 55 68 26 351 328 319 318 349 346 325 325 314 301 272 225 217 217 201 185 190 211 229 219 nan nan nan nan nan nan nan nan nan nan 183 196 190 196 195 181
nan nan nan nan nan nan nan nan nan nan nan nan nan nan nan nan nan nan nan nan nan nan nan nan nan nan 218 220 213 210 210 nan nan nan nan nan nan nan 177 170 160 130 90 13 16 21 12 57 42 348 326 337 329 328 335 333 298 304 312 321 313 256 230 217 213 200 191 194 208 216 nan nan nan nan nan nan nan nan nan nan nan nan 204 201 197 192
nan nan nan nan nan nan nan nan nan nan nan nan nan nan nan nan nan nan nan nan nan nan nan nan nan nan nan 216 215 214 214 nan nan nan nan nan nan nan nan 165 160 150 160 184 208 237 291 5 339 321 323 327 319 311 306 279 270 284 304 326 333 322 253 232 217 208 197 191 194 200 202 nan nan nan nan nan nan nan nan nan nan nan 194 201 202 199
nan nan nan nan nan nan nan nan nan nan nan nan nan nan nan nan nan nan nan nan nan nan nan nan nan nan nan nan 215 217 217 216 nan nan nan nan nan nan nan 172 166 164 162 166 198 229 290 319 308 315 296 286 289 275 265 270 266 303 321 328 336 316 259 237 231 224 210 200 197 197 198 nan nan nan nan nan nan nan nan nan nan nan nan nan 208 201
nan nan nan nan nan nan nan nan nan nan nan nan nan nan nan nan nan nan nan nan nan nan nan nan nan nan nan nan nan 215 216 215 nan nan nan nan nan nan nan nan 163 167 161 158 176 206 240 255 260 296 270 241 232 234 242 249 272 291 303 330 332 325 305 258 238 234 222 214 203 205 206 nan nan nan nan nan nan nan nan nan nan nan nan nan 212 214
nan nan nan nan nan nan nan nan nan nan nan nan nan nan nan nan nan nan nan nan nan nan nan nan nan nan nan nan 210 214 214 212 209 nan nan nan nan nan nan nan 174 167 168 157 165 185 210 239 243 251 252 231 229 235 252 252 247 261 292 321 322 315 315 282 225 224 225 220 212 209 211 209 nan nan nan nan nan nan nan nan nan nan nan nan nan 226
nan nan nan nan nan nan nan nan nan nan nan nan nan nan nan nan nan nan nan nan nan nan nan nan nan nan nan nan nan 212 210 206 201 200 nan 199 197 195 191 187 186 184 183 176 175 178 188 219 239 247 255 243 238 237 251 252 254 264 284 296 299 313 311 259 216 214 219 220 216 212 211 214 nan nan nan nan nan nan nan nan nan nan nan nan nan 224
nan nan nan nan nan nan nan nan nan nan nan nan nan nan nan nan nan nan nan nan nan nan nan nan nan nan nan nan nan nan 206 202 199 199 nan 200 200 199 197 193 191 192 193 192 189 187 187 193 204 211 214 218 222 226 236 242 244 245 250 261 265 315 300 270 226 212 214 215 216 217 215 213 214 nan nan nan nan nan nan nan nan nan nan nan nan nan
nan nan nan nan nan nan nan nan nan nan nan nan nan nan nan nan nan nan nan nan nan nan nan nan nan nan nan nan nan nan 203 203 200 200 202 203 201 200 201 199 195 194 199 198 195 194 195 196 197 192 188 190 203 212 215 223 230 237 245 245 244 250 274 273 253 230 213 213 217 219 217 217 218 nan nan nan nan nan nan nan nan nan nan nan nan nan
nan nan nan nan nan nan nan nan nan nan nan nan nan nan nan nan nan nan nan nan nan nan nan nan nan nan nan nan nan nan nan 204 203 201 204 207 202 201 202 202 201 198 199 201 199 198 199 199 198 195 189 185 184 189 196 203 212 223 229 234 234 232 247 263 261 251 228 216 216 217 218 220 220 218 nan nan nan nan nan nan nan nan nan nan nan nan
nan nan nan nan nan nan nan nan nan nan nan nan nan nan nan nan nan nan nan nan nan nan nan nan nan nan nan nan nan nan nan nan 203 203 203 201 200 200 203 206 205 202 201 202 201 201 203 202 199 196 193 190 188 187 186 187 191 202 210 218 222 223 233 242 251 255 244 222 214 215 219 221 221 222 220 nan nan nan nan nan nan nan nan nan nan nan
nan nan nan nan nan nan nan nan nan nan nan nan nan nan nan nan nan nan nan nan nan nan nan nan nan nan nan nan nan nan nan nan nan 205 203 202 201 200 202 207 206 205 202 202 202 203 205 203 201 198 195 194 193 191 190 190 189 193 200 202 208 214 217 221 229 241 239 226 207 207 215 218 220 221 221 nan nan nan nan nan nan nan nan nan nan nan
nan nan nan nan nan nan nan nan nan nan nan nan nan nan nan nan nan nan nan nan nan nan nan nan nan nan nan nan nan nan nan nan nan 205 204 205 204 203 205 207 206 205 203 203 202 204 206 205 203 201 198 196 196 196 195 195 194 198 203 200 205 210 211 213 217 219 223 213 194 190 203 213 217 218 220 222 223 nan nan nan nan nan nan nan nan nan
nan nan nan nan nan nan nan nan nan nan nan nan nan nan nan nan nan nan nan nan nan nan nan nan nan nan nan nan nan nan nan nan nan nan 206 208 205 204 206 207 207 205 205 204 203 204 206 206 206 206 203 201 199 199 198 198 198 199 197 207 212 214 214 217 211 211 211 201 187 188 196 206 213 217 220 221 221 222 223 223 nan nan nan nan nan nan
nan nan nan nan nan nan nan nan nan nan nan nan nan nan nan nan nan nan nan nan nan nan nan nan nan nan nan nan nan nan nan nan nan nan nan 206 205 205 207 207 207 206 205 205 205 204 205 207 210 210 209 206 203 202 201 199 199 199 200 201 213 220 222 224 217 211 207 200 195 196 197 200 207 216 220 221 221 221 223 223 225 224 nan nan nan nan
nan nan nan nan nan nan nan nan nan nan nan nan nan nan nan nan nan nan nan nan nan nan nan nan nan nan nan nan nan nan nan nan nan nan nan nan 207 208 208 207 207 207 206 205 204 205 206 209 212 213 213 210 206 204 204 202 200 200 199 200 199 210 226 227 225 214 209 204 206 206 200 197 204 211 216 223 225 227 227 226 226 224 224 225 225 nan
nan nan nan nan nan nan nan nan nan nan nan nan nan nan nan nan nan nan nan nan nan nan nan nan nan nan nan nan nan nan nan nan nan nan nan nan nan 210 210 208 208 209 207 206 206 207 209 211 212 212 212 212 209 206 204 203 202 200 200 198 199 197 210 227 225 220 213 211 214 209 202 197 195 197 206 217 225 230 232 233 231 229 228 228 228 229
nan nan nan nan nan nan nan nan nan nan nan nan nan nan nan nan nan nan nan nan nan nan nan nan nan nan nan nan nan nan nan nan nan nan nan nan nan 210 210 209 209 210 209 208 208 210 210 211 212 210 209 209 207 207 204 204 203 202 200 201 199 200 201 207 215 218 214 219 221 217 210 199 188 182 188 204 217 225 231 235 236 236 234 231 232 232
nan nan nan nan nan nan nan nan nan nan nan nan nan nan nan nan nan nan nan nan nan nan nan nan nan nan nan nan nan nan nan nan nan nan nan nan nan nan nan 208 209 211 209 208 208 211 210 209 208 206 206 206 204 204 205 203 202 201 202 201 201 202 201 204 207 208 212 217 221 223 217 204 189 178 184 199 212 220 226 231 231 235 236 236 237 236
nan nan nan nan nan nan nan nan nan nan nan nan nan nan nan nan nan nan nan nan nan nan nan nan nan nan nan nan nan nan nan nan nan nan nan nan nan nan nan nan 207 210 210 207 210 213 212 209 208 207 206 207 206 206 207 205 201 201 201 201 203 202 203 203 206 207 206 208 217 222 221 214 199 189 190 197 206 213 217 223 227 230 233 234 234 233
nan nan nan nan nan nan nan nan nan nan nan nan nan nan nan nan nan nan nan nan nan nan nan nan nan nan nan nan nan nan nan nan nan nan nan nan nan nan nan nan nan nan nan 208 nan 212 212 210 209 209 208 207 206 208 210 207 204 203 201 202 204 205 204 203 204 205 207 206 207 209 216 219 213 205 201 202 205 207 211 217 220 223 228 229 230 232
nan nan nan nan nan nan nan nan nan nan nan nan nan nan nan nan nan nan nan nan nan nan nan nan nan nan nan nan nan nan nan nan nan nan nan nan nan nan nan nan nan nan nan nan nan nan nan nan nan nan 209 205 203 206 210 209 207 205 203 203 204 206 207 206 205 204 204 206 209 210 211 212 215 218 217 213 211 213 214 217 218 223 230 231 231 231
nan nan nan nan nan nan nan nan nan nan nan nan nan nan nan nan nan nan nan nan nan nan nan nan nan nan nan nan nan nan nan nan nan nan nan nan nan nan nan nan nan nan nan nan nan nan nan nan nan nan nan nan nan nan nan 207 208 207 205 206 206 207 208 209 207 205 202 202 205 208 211 215 217 219 222 222 219 223 226 227 226 228 232 231 231 231
nan nan nan nan nan nan nan nan nan nan nan nan nan nan nan nan nan nan nan nan nan nan nan nan nan nan nan nan nan nan nan nan nan nan nan nan nan nan nan nan nan nan nan nan nan nan nan nan nan nan nan nan nan nan nan nan 208 206 206 208 210 209 209 210 209 206 203 202 204 207 209 211 216 220 221 220 222 227 231 233 233 235 237 235 234 233
nan nan nan nan nan nan nan nan nan nan nan nan nan nan nan nan nan nan nan nan nan nan nan nan nan nan nan nan nan nan nan nan nan nan nan nan nan nan nan nan nan nan nan nan nan nan nan nan nan nan nan nan nan nan nan nan nan 206 205 207 211 211 210 211 210 208 206 206 206 206 208 211 214 217 218 219 223 228 231 237 241 244 244 241 238 236
nan nan nan nan nan nan nan nan nan nan nan nan nan nan nan nan nan nan nan nan nan nan nan nan nan nan nan nan nan nan nan nan nan nan nan nan nan nan nan nan nan nan nan nan nan nan nan nan nan nan nan nan nan nan nan nan nan nan 204 205 208 209 210 211 212 212 211 210 209 208 208 210 214 215 217 219 223 226 228 235 243 247 249 247 246 245
nan nan nan nan nan nan nan nan nan nan nan nan nan nan nan nan nan nan nan nan nan nan nan nan nan nan nan nan nan nan nan nan nan nan nan nan nan nan nan nan nan nan nan nan nan nan nan nan nan nan nan nan nan nan nan nan nan nan nan 205 206 207 207 209 212 213 215 214 213 212 210 211 213 216 218 220 224 225 223 229 237 245 249 252 252 251
nan nan nan nan nan nan nan nan nan nan nan nan nan nan nan nan nan nan nan nan nan nan nan nan nan nan nan nan nan nan nan nan nan nan nan nan nan nan nan nan nan nan nan nan nan nan nan nan nan nan nan nan nan nan nan nan nan nan nan 203 207 208 208 209 210 212 214 216 216 215 216 214 213 215 217 220 224 226 225 227 231 238 244 249 252 252
nan nan nan nan nan nan nan nan nan nan nan nan nan nan nan nan nan nan nan nan nan nan nan nan nan nan nan nan nan nan nan nan nan nan nan nan nan nan nan nan nan nan nan nan nan nan nan nan nan nan nan nan nan nan nan nan nan nan nan nan nan 208 209 211 213 214 214 216 214 214 216 218 219 218 217 217 222 226 228 230 232 234 238 244 249 251
nan nan nan nan nan nan nan nan nan nan nan nan nan nan nan nan nan nan nan nan nan nan nan nan nan nan nan nan nan nan nan nan nan nan nan nan nan nan nan nan nan nan nan nan nan nan nan nan nan nan nan nan nan nan nan nan nan nan nan nan nan nan nan nan 215 215 213 213 214 214 216 217 219 220 218 217 218 221 228 232 235 235 237 241 245 248
nan nan nan nan nan nan nan nan nan nan nan nan nan nan nan nan nan nan nan nan nan nan nan nan nan nan nan nan nan nan nan nan nan nan nan nan nan nan nan nan nan nan nan nan nan nan nan nan nan nan nan nan nan nan nan nan nan nan nan nan nan nan nan nan nan 214 214 212 212 213 217 218 220 218 218 219 217 219 225 233 236 237 237 239 243 245
nan nan nan nan nan nan nan nan nan nan nan nan nan nan nan nan nan nan nan nan nan nan nan nan nan nan nan nan nan nan nan nan nan nan nan nan nan nan nan nan nan nan nan nan nan nan nan nan nan nan nan nan nan nan nan nan nan nan nan nan nan nan nan nan nan nan nan 210 213 215 215 218 215 213 214 215 217 219 225 233 238 238 239 241 243 245
nan nan nan nan nan nan nan nan nan nan nan nan nan nan nan nan nan nan nan nan nan nan nan nan nan nan nan nan nan nan nan nan nan nan nan nan nan nan nan nan nan nan nan nan nan nan nan nan nan nan nan nan nan nan nan nan nan nan nan nan nan nan nan nan nan nan nan nan 214 215 216 217 216 213 211 212 215 218 225 234 237 238 238 241 244 247
nan nan nan nan nan nan nan nan nan nan nan nan nan nan nan nan nan nan nan nan nan nan nan nan nan nan nan nan nan nan nan nan nan nan nan nan nan nan nan nan nan nan nan nan nan nan nan nan nan nan nan nan nan nan nan nan nan nan nan nan nan nan nan nan nan nan nan nan 214 215 216 217 216 212 209 209 214 220 223 227 239 244 244 242 249 258
nan nan nan nan nan nan nan nan nan nan nan nan nan nan nan nan nan nan nan nan nan nan nan nan nan nan nan nan nan nan nan nan nan nan nan nan nan nan nan nan nan nan nan nan nan nan nan nan nan nan nan nan nan nan nan nan nan nan nan nan nan nan nan nan nan nan nan nan 214 215 216 217 215 212 211 211 218 225 229 231 227 227 228 226 234 251